This is the latest recevied weather packets stored in our database for station/object GBTWP-2. If no packets are shown the sender has not sent any weather packets the latest 10 day(s).
| Time | Temp. | Humidity | Pressure | Rain* | Wind** | Luminosity | Snow |
|---|---|---|---|---|---|---|---|
| 1787532420 | 14.44° C | 85% | 1016.2 hPa | 0 mm | - | 0 W/m² | - |
| 1787532119 | 14.44° C | 85% | 1016 hPa | 0 mm | - | 0 W/m² | - |
| 1787531820 | 14.44° C | 84% | 1016 hPa | 0 mm | - | 1 W/m² | - |
| 1787531519 | 14.44° C | 83% | 1016.1 hPa | 0 mm | - | 1 W/m² | - |
| 1787531220 | 14.44° C | 84% | 1015.9 hPa | 0 mm | - | 2 W/m² | - |
| 1787530919 | 15° C | 85% | 1016 hPa | 0 mm | - | 3 W/m² | - |
| 1787530620 | 15° C | 85% | 1015.9 hPa | 0 mm | - | 5 W/m² | - |
| 1787530319 | 15° C | 86% | 1016.1 hPa | 0 mm | - | 8 W/m² | - |
| 1787530020 | 15° C | 86% | 1015.9 hPa | 0 mm | - | 8 W/m² | - |
| 1787529719 | 15° C | 85% | 1015.8 hPa | 0 mm | - | 12 W/m² | - |
| 1787529420 | 15° C | 87% | 1016.1 hPa | 0 mm | - | 15 W/m² | - |
| 1787529119 | 15.56° C | 86% | 1015.9 hPa | 0 mm | - | 18 W/m² | - |
| 1787528820 | 15.56° C | 86% | 1015.8 hPa | 0 mm | - | 22 W/m² | - |
| 1787528519 | 15.56° C | 86% | 1015.8 hPa | 0 mm | - | 25 W/m² | - |
| 1787528221 | 15.56° C | 87% | 1015.8 hPa | 0 mm | - | 33 W/m² | - |
| 1787527919 | 15.56° C | 87% | 1015.9 hPa | 0 mm | - | 42 W/m² | - |
| 1787527620 | 15.56° C | 86% | 1015.8 hPa | 1.27 mm | - | 35 W/m² | - |
| 1787527319 | 15.56° C | 86% | 1015.9 hPa | 1.27 mm | - | 38 W/m² | - |
| 1787527020 | 16.11° C | 85% | 1015.9 hPa | 0 mm | - | 22 W/m² | - |
| 1787526719 | 16.11° C | 87% | 1015.9 hPa | 0 mm | - | 21 W/m² | - |
| 1787526420 | 16.11° C | 87% | 1015.8 hPa | 0 mm | - | 29 W/m² | - |
| 1787526119 | 15.56° C | 88% | 1015.8 hPa | 0 mm | - | 43 W/m² | - |
| 1787525820 | 15.56° C | 90% | 1015.6 hPa | 0 mm | - | 44 W/m² | - |
| 1787525519 | 16.11° C | 90% | 1015.7 hPa | 0 mm | - | 38 W/m² | - |
| 1787525220 | 16.11° C | 90% | 1015.6 hPa | 0 mm | - | 39 W/m² | - |
* Rain latest hour (hover to see other rain measurements)
** Current wind speed in m/s (hover to see current wind gust speed)